IBLACK343 Weather Reports


Display with metric or nautical units.
time (UTC)temp
F
wind
direction
speed
MPH
gust
MPH
rain 1hr
in
rain 24hr
in
rain mn
in
humidity
%
barometer
mb
20260504024008 55 350 4.0 11.0 0.00 0.00 0.00 39 1013.3
20260504023507 55 319 6.0 16.0 0.00 0.00 0.00 38 1013.3
20260504023022 55 307 4.0 16.0 0.00 0.00 0.00 38 1013.2
20260504022503 55 312 5.0 14.0 0.00 0.00 0.00 37 1013.1
20260504022004 56 335 4.0 14.0 0.00 0.00 0.00 37 1013.2
20260504021506 56 26 5.0 14.0 0.00 0.00 0.00 36 1013.1
20260504021003 56 57 8.0 16.0 0.00 0.00 0.00 34 1012.9
20260504020503 56 346 6.0 16.0 0.00 0.00 0.00 35 1012.8
20260504020010 57 327 7.0 16.0 0.00 0.00 0.00 34 1012.8
20260504015502 57 324 7.0 16.0 0.00 0.00 0.00 35 1012.8
20260504015002 57 316 9.0 16.0 0.00 0.00 0.00 34 1012.6
20260504014513 57 304 8.0 17.0 0.00 0.00 0.00 34 1012.6
20260504014005 57 345 9.0 18.0 0.00 0.00 0.00 34 1012.5
20260504013506 57 316 6.0 18.0 0.00 0.00 0.00 34 1012.5
20260504013021 58 330 9.0 17.0 0.00 0.00 0.00 34 1012.5
20260504012505 58 354 7.0 19.0 0.00 0.00 0.00 34 1012.4
20260504012007 58 333 10.0 19.0 0.00 0.00 0.00 34 1012.5
20260504011522 58 333 7.0 21.0 0.00 0.00 0.00 34 1012.4
20260504011010 58 10 9.0 26.0 0.00 0.00 0.00 34 1012.1
20260504010502 58 325 10.0 26.0 0.00 0.00 0.00 34 1012.2
20260504010009 58 310 9.0 21.0 0.00 0.00 0.00 33 1012.2
20260504005504 59 311 9.0 21.0 0.00 0.00 0.00 34 1012.1
20260504005004 59 20 9.0 24.0 0.00 0.00 0.00 34 1012.2
20260504004516 59 302 11.0 24.0 0.00 0.00 0.00 33 1012.1
20260504004007 59 337 12.0 24.0 0.00 0.00 0.00 33 1012.4
20260504003506 60 311 8.0 20.0 0.00 0.00 0.00 32 1012.0
20260504003015 60 327 8.0 20.0 0.00 0.00 0.00 32 1012.0
20260504002506 61 349 8.0 21.0 0.00 0.00 0.00 32 1011.8
20260504002008 61 326 8.0 27.0 0.00 0.00 0.00 32 1012.0
20260504001523 61 193 11.0 27.0 0.00 0.00 0.00 31 1011.9
20260504001007 61 297 10.0 22.0 0.00 0.00 0.00 31 1011.8
20260504000506 62 27 9.0 22.0 0.00 0.00 0.00 31 1011.8
20260504000025 62 332 9.0 23.0 0.00 0.00 0.00 31 1011.5
20260503235508 62 32 8.0 23.0 0.00 0.00 0.00 31 1011.5
20260503235011 63 22 8.0 19.0 0.00 0.00 0.00 31 1011.4
20260503234516 63 32 5.0 19.0 0.00 0.00 0.00 31 1011.4
20260503234004 63 316 7.0 18.0 0.00 0.00 0.00 31 1011.4
20260503233503 63 50 8.0 18.0 0.00 0.00 0.00 30 1011.3
20260503233012 63 351 10.0 18.0 0.00 0.00 0.00 30 1011.4
20260503232505 63 323 9.0 18.0 0.00 0.00 0.00 30 1011.3
20260503232004 63 304 9.0 17.0 0.00 0.00 0.00 30 1011.3
20260503231522 63 15 8.0 17.0 0.00 0.00 0.00 31 1011.2
20260503231009 63 37 5.0 20.0 0.00 0.00 0.00 31 1011.2
20260503230508 64 312 10.0 21.0 0.00 0.00 0.00 30 1011.3
20260503230024 65 356 9.0 21.0 0.00 0.00 0.00 29 1011.0
20260503225506 66 342 11.0 20.0 0.00 0.00 0.00 29 1010.8
20260503225007 66 299 8.0 19.0 0.00 0.00 0.00 29 1010.9
20260503224526 67 356 8.0 19.0 0.00 0.00 0.00 28 1011.1
20260503224010 67 312 7.0 15.0 0.00 0.00 0.00 28 1010.7
20260503223508 68 311 5.0 15.0 0.00 0.00 0.00 28 1010.8
20260503223029 67 252 5.0 18.0 0.00 0.00 0.00 28 1010.6
20260503222504 67 301 6.0 18.0 0.00 0.00 0.00 29 1010.6
20260503222003 67 334 8.0 16.0 0.00 0.00 0.00 28 1010.6
20260503221516 68 270 7.0 17.0 0.00 0.00 0.00 28 1010.7
20260503221008 67 297 7.0 21.0 0.00 0.00 0.00 28 1010.6
20260503220511 68 326 7.0 21.0 0.00 0.00 0.00 28 1010.7
20260503220018 68 23 6.0 16.0 0.00 0.00 0.00 28 1010.7
20260503215508 68 342 5.0 16.0 0.00 0.00 0.00 29 1010.7
20260503215008 67 38 5.0 14.0 0.00 0.00 0.00 29 1010.7
20260503214537 67 349 6.0 17.0 0.00 0.00 0.00 29 1010.8
20260503214009 67 316 7.0 17.0 0.00 0.00 0.00 29 1010.8
20260503213504 67 267 7.0 17.0 0.00 0.00 0.00 28 1010.7
20260503213008 67 225 6.0 13.0 0.00 0.00 0.00 28 1011.1
20260503212508 67 314 4.0 13.0 0.00 0.00 0.00 29 1011.0
20260503212004 67 309 6.0 17.0 0.00 0.00 0.00 29 1010.9
20260503211514 67 1 8.0 17.0 0.00 0.00 0.00 28 1011.0
20260503211004 67 320 8.0 17.0 0.00 0.00 0.00 29 1010.8
20260503210506 67 345 6.0 17.0 0.00 0.00 0.00 28 1010.8
20260503210016 67 255 5.0 19.0 0.00 0.00 0.00 28 1010.9
20260503205505 67 310 4.0 19.0 0.00 0.00 0.00 29 1011.0
20260503205005 67 322 5.0 14.0 0.00 0.00 0.00 29 1011.0
20260503204519 67 278 5.0 17.0 0.00 0.00 0.00 28 1010.9
20260503204007 67 295 5.0 17.0 0.00 0.00 0.00 28 1011.0
20260503203507 67 263 5.0 15.0 0.00 0.00 0.00 29 1010.9
20260503203024 67 308 5.0 13.0 0.00 0.00 0.00 29 1011.0
20260503202509 67 248 5.0 17.0 0.00 0.00 0.00 29 1011.0
20260503202010 67 11 7.0 17.0 0.00 0.00 0.00 29 1011.0
20260503201508 67 294 8.0 14.0 0.00 0.00 0.00 28 1010.9
20260503201007 67 323 6.0 14.0 0.00 0.00 0.00 29 1011.0
20260503200504 66 217 7.0 16.0 0.00 0.00 0.00 28 1011.0
20260503200016 67 284 7.0 16.0 0.00 0.00 0.00 29 1011.1
20260503195504 67 298 6.0 17.0 0.00 0.00 0.00 29 1011.1
20260503195005 66 301 7.0 17.0 0.00 0.00 0.00 29 1011.1
20260503194518 66 312 5.0 14.0 0.00 0.00 0.00 29 1011.1
20260503194009 66 292 7.0 17.0 0.00 0.00 0.00 29 1011.2
20260503193507 67 320 4.0 17.0 0.00 0.00 0.00 30 1011.2
20260503193029 66 308 7.0 18.0 0.00 0.00 0.00 28 1011.3
20260503192507 67 289 6.0 18.0 0.00 0.00 0.00 30 1011.3
20260503192011 66 312 4.0 18.0 0.00 0.00 0.00 30 1011.4
20260503191526 66 304 7.0 18.0 0.00 0.00 0.00 30 1011.5
20260503191008 65 1 8.0 18.0 0.00 0.00 0.00 30 1011.4
20260503190507 65 304 7.0 16.0 0.00 0.00 0.00 30 1011.4
20260503190028 66 277 8.0 15.0 0.00 0.00 0.00 29 1011.5
20260503185502 65 281 6.0 15.0 0.00 0.00 0.00 31 1011.6
20260503185006 65 276 5.0 15.0 0.00 0.00 0.00 31 1011.5
20260503184518 65 257 6.0 15.0 0.00 0.00 0.00 31 1011.5
20260503184007 65 257 7.0 18.0 0.00 0.00 0.00 31 1011.5
20260503183508 66 309 6.0 22.0 0.00 0.00 0.00 31 1011.6
20260503183020 66 260 7.0 22.0 0.00 0.00 0.00 31 1011.6
20260503182505 66 342 7.0 21.0 0.00 0.00 0.00 31 1011.6
20260503182012 65 311 7.0 21.0 0.00 0.00 0.00 32 1011.6
20260503181523 65 212 7.0 16.0 0.00 0.00 0.00 32 1011.6
20260503181010 65 296 7.0 18.0 0.00 0.00 0.00 32 1011.5
20260503180510 65 319 6.0 18.0 0.00 0.00 0.00 32 1011.5
20260503180042 65 297 5.0 16.0 0.00 0.00 0.00 33 1011.5
20260503175509 65 289 6.0 14.0 0.00 0.00 0.00 33 1011.6
20260503175009 65 302 6.0 13.0 0.00 0.00 0.00 33 1011.6
20260503174541 64 313 6.0 13.0 0.00 0.00 0.00 34 1011.5
20260503174004 64 297 7.0 19.0 0.00 0.00 0.00 34 1011.6
20260503173504 64 238 7.0 19.0 0.00 0.00 0.00 35 1011.5
20260503173025 64 262 6.0 16.0 0.00 0.00 0.00 34 1011.6
20260503172506 64 293 7.0 16.0 0.00 0.00 0.00 34 1011.6
20260503172009 64 291 6.0 14.0 0.00 0.00 0.00 35 1011.6
20260503171521 64 304 4.0 16.0 0.00 0.00 0.00 35 1011.6
20260503171008 63 302 7.0 16.0 0.00 0.00 0.00 35 1011.7
20260503170509 63 1 6.0 13.0 0.00 0.00 0.00 35 1011.6
20260503151002 58 285 7.0 15.0 0.00 0.00 0.00 37 1012.2
20260503150505 58 264 4.0 14.0 0.00 0.00 0.00 37 1012.4
20260503131003 49 222 1.0 4.0 0.00 0.00 0.00 44 1012.2
20260503130506 49 214 1.0 4.0 0.00 0.00 0.00 44 1012.1
20260503110503 50 257 2.0 5.0 0.00 0.00 0.00 39 1012.5
20260503090507 49 231 0.0 1.0 0.00 0.00 0.00 41 1012.8
20260503081534 53 255 2.0 6.0 0.00 0.00 0.00 36 1012.7
20260503081004 53 278 2.0 4.0 0.00 0.00 0.00 36 1012.6
20260503080507 53 271 2.0 5.0 0.00 0.00 0.00 36 1012.6
20260503072512 54 256 2.0 4.0 0.00 0.00 0.00 35 1012.7
20260503072011 55 237 1.0 3.0 0.00 0.00 0.00 34 1012.6
20260503071528 55 273 2.0 4.0 0.00 0.00 0.00 34 1012.6
20260503071004 55 267 2.0 6.0 0.00 0.00 0.00 34 1012.6
20260503070506 56 272 3.0 7.0 0.00 0.00 0.00 34 1012.5
20260503055007 58 263 8.0 16.0 0.00 0.00 0.00 33 1012.3
20260503054522 57 290 6.0 10.0 0.00 0.00 0.00 37 1012.2
20260503054007 55 270 3.0 6.0 0.00 0.00 0.00 41 1012.1
20260503053507 55 224 1.0 2.0 0.00 0.00 0.00 43 1012.2
20260503053003 55 256 0.0 2.0 0.00 0.00 0.00 42 1012.2
20260503052502 55 217 1.0 2.0 0.00 0.00 0.00 42 1012.2
20260503052004 55 231 0.0 2.0 0.00 0.00 0.00 43 1012.3
20260503051512 54 207 0.0 4.0 0.00 0.00 0.00 43 1012.4
20260503051003 55 131 0.0 4.0 0.00 0.00 0.00 43 1012.4
20260503050503 55 130 1.0 3.0 0.00 0.00 0.00 42 1012.4
20260503050017 55 191 0.0 2.0 0.00 0.00 0.00 41 1012.4
20260503045506 55 193 0.0 2.0 0.00 0.00 0.00 41 1012.3
20260503045005 55 230 0.0 2.0 0.00 0.00 0.00 40 1012.3
20260503044516 55 131 0.0 1.0 0.00 0.00 0.00 40 1012.5
20260503044006 56 224 0.0 2.0 0.00 0.00 0.00 39 1012.4
20260503043507 56 223 0.0 2.0 0.00 0.00 0.00 39 1012.4
20260503043022 56 240 0.0 1.0 0.00 0.00 0.00 39 1012.4
20260503042508 57 217 0.0 0.0 0.00 0.00 0.00 38 1012.4
20260503042012 57 209 0.0 0.0 0.00 0.00 0.00 37 1012.5
20260503041524 57 205 0.0 2.0 0.00 0.00 0.00 37 1012.6
20260503041002 58 205 0.0 2.0 0.00 0.00 0.00 36 1012.7
20260503040503 58 213 1.0 1.0 0.00 0.00 0.00 36 1012.7
20260503040007 58 174 0.0 0.0 0.00 0.00 0.00 36 1012.7
20260503035504 58 147 0.0 0.0 0.00 0.00 0.00 36 1012.7
20260503035005 59 147 0.0 0.0 0.00 0.00 0.00 36 1012.6
20260503034513 59 147 0.0 0.0 0.00 0.00 0.00 36 1012.5
20260503034004 59 147 0.0 0.0 0.00 0.00 0.00 37 1012.5
20260503033507 59 147 0.0 0.0 0.00 0.00 0.00 36 1012.4
20260503033029 59 147 0.0 0.0 0.00 0.00 0.00 35 1012.5
20260503032507 60 147 0.0 0.0 0.00 0.00 0.00 34 1012.4
20260503032009 60 147 0.0 0.0 0.00 0.00 0.00 33 1012.3
20260503031520 61 147 0.0 0.0 0.00 0.00 0.00 33 1012.2
20260503031008 61 147 0.0 0.0 0.00 0.00 0.00 32 1012.1
20260503030507 62 147 0.0 0.0 0.00 0.00 0.00 32 1012.1
20260503030044 63 147 0.0 0.0 0.00 0.00 0.00 32 1012.0
20260503025507 63 147 0.0 0.0 0.00 0.00 0.00 31 1011.9
20260503025002 64 147 0.0 0.0 0.00 0.00 0.00 30 1012.0
20260503024510 65 147 0.0 0.0 0.00 0.00 0.00 29 1011.9